{"data":{"norad_id":53947,"intl_designator":"2022-120E","name":"YAOGAN-36 01C","alt_names":[],"object_type":"PAYLOAD","status":"ACTIVE","operator":null,"country":"PRC","launch_date":"2022-09-26","launch_site_code":"XICLF","launch_vehicle":null,"mission":null,"orbit_class":"UNKNOWN","rcs_meters":null,"size_class":null,"mass_kg":null,"dimensions":null,"purposes":[],"wikipedia_slug":null,"has_3d_model":false,"image_url":null,"decayed_at":null,"tle_current":{"epoch":"2026-09-20T15:02:29.090112Z","epoch_age_seconds":142647,"freshness":"FRESH","line1":"1 53947U 22120E   26263.62672558  .00017800  00000+0  42149-3 0  9993","line2":"2 53947  35.0041 342.8172 0003195 313.2606  46.7847 15.40867613222518","mean_motion":15.40867613,"eccentricity":0.0003195,"inclination_deg":35.0041,"raan_deg":342.8172,"arg_perigee_deg":313.2606,"mean_anomaly_deg":46.7847,"bstar":0.00042149,"rev_number":22251,"period_min":93.453843007083,"perigee_km":441.36787359354,"apogee_km":445.72692992626,"semimajor_km":6821.6844017599,"source":"CELESTRAK","updated_at":"2026-09-21T09:00:09.273420Z"}}}